TURKSAT 3A

Last updated on Nov. 18, 2019, 4:21 a.m. UTC

1 33056U 08030B   19321.43537880  .00000153  00000-0  00000+0 0  9990
2 33056   0.0832  91.4247 0003215 127.0350  36.4850  1.00273483 41984
UTC
Height (km)
Latitude
Longitude
Inclination
Orbital Period
UTC large
Height (km)
Speed (km/s)
/
Latitude / Longitude
Inclination (degrees)
Orbital Period (minutes)
Azimuth
Elevation
Range (km)
Doppler Factor
iOS Compass Heading
iOS Angle

Next 30 passes for location: Hong Kong

Rise time Rise Azimuth (degrees) Set time Set Azimuth (degrees) Duration Max altitude (degrees)

No matching passes for this satellites